Tracking 28790 objects as of 19-Apr-2024
HD Live streaming from Space Station
objects crossing your sky now

STARLINK-1509

Track STARLINK-1509 now!
10-day predictions
STARLINK-1509 is classified as:


NORAD ID: 45766
Int'l Code: 2020-038AN
Perigee: 459.6 km
Apogee: 463.3 km
Inclination: 53.0 °
Period: 93.7 minutes
Semi major axis: 6832 km
RCS: Unknown
Launch date: June 13, 2020
Source: United States (US)
Launch site: AIR FORCE EASTERN TEST RANGE (AFETR)
Your satellite tracking list
Your tracking list is empty




NASA's NSSDC Master Catalog

Two Line Element Set (TLE):
1 45766U 20038AN  24109.92750960  .00036955  00000-0  10044-2 0  9994
2 45766  53.0463   9.6212 0002761  71.1394 288.9908 15.37226816213407
Source of the keplerian elements: AFSPC